Regional Weather Roundup
Issued by NWS Sioux Falls, SD

Home | Current Version | Previous Version | Text Only | Print | Product List | Glossary On
Versions: 1 2 3 4 5 6 7 8 9 10 11 12 13 14 15 16 17 18 19 20 21 22 23 24 25 26 27 28 29 30 31 32 33 34 35 36 37 38 39 40 41 42 43 44 45 46 47 48 49 50
000
ASUS43 KFSD 110710
RWRFSD

WEATHER ROUNDUP FOR SE SOUTH DAKOTA/SW MINNESOTA/NW IOWA
NATIONAL WEATHER SERVICE SIOUX FALLS SD
100 AM CST THU FEB 11 2016

NOTE: "FAIR" INDICATES FEW OR NO CLOUDS BELOW 12,000 FEET WITH NO
SIGNIFICANT WEATHER AND OR OBSTRUCTIONS TO VISIBILITY.


SDZ038>040-050-052>070-110800-
SOUTHEAST SOUTH DAKOTA

CITY           SKY/WX    TMP DP  RH WIND       PRES   REMARKS
BROOKINGS      CLOUDY    11   6  81 E3        30.22S
CHAMBERLAIN    CLOUDY    22  19  89 CALM      30.21F
HURON          CLOUDY    16  10  77 E5        30.25S WCI   9
MADISON        CLOUDY    10   9  92 E8        30.22R WCI  -1
MITCHELL       CLOUDY    19  12  74 E5        30.26R WCI  12
SIOUX FALLS    CLOUDY    13   6  74 NE6       30.25R WCI   4
WINNER         CLOUDY    27  21  78 N5        30.18S WCI  22
YANKTON        MOCLDY    18  10  73 NE7       30.26R WCI   8
$$

MNZ071-072-080-081-089-090-097-098-110800-
SOUTHWEST MINNESOTA

CITY           SKY/WX    TMP DP  RH WIND       PRES   REMARKS
FAIRMONT       PTCLDY     5  -2  72 MISG      30.24R
JACKSON        CLOUDY    12   3  67 VRB6      30.24R WCI   3
LUVERNE        CLOUDY    14   9  79 NE5       30.25S WCI   6
MARSHALL       CLOUDY    10   5  80 N3        30.27R
MONTEVIDEO     CLOUDY     7   1  78 CALM      30.29S
PIPESTONE      CLOUDY    12   3  67 E5        30.21F WCI   4
REDWOOD FALLS  CLOUDY     5   1  83 W3        30.28R
TRACY          CLOUDY    12   7  81 N5        30.26R WCI   4
WINDOM         CLOUDY     3   0  85 CALM      30.24R
WORTHINGTON    CLOUDY    10   3  72 N7        30.23R WCI   0
$$

IAZ001>003-012>014-020>022-031-032-NEZ013-014-SDZ071-110800-
NORTHWEST IOWA

CITY           SKY/WX    TMP DP  RH WIND       PRES   REMARKS
CHEROKEE       CLOUDY    14  10  82 NE6       30.25R WCI   5
DENISON        CLOUDY    12   7  79 E6        30.19S WCI   3
ESTHERVILLE    CLOUDY    10   3  73 N12       30.23R WCI  -5
LE MARS        CLOUDY    16  12  86 NE6       30.27R WCI   7
ORANGE CITY    CLOUDY    12   9  85 NE8       30.23R WCI   1
SHELDON        CLOUDY    12   7  79 NE8       30.23R WCI   1
SIOUX CITY     CLOUDY    18  10  71 E7        30.24R WCI   9
SPENCER        CLOUDY    12   2  64 NE7       30.25R WCI   1
STORM LAKE     CLOUDY    12   7  79 NE13      30.22R WCI  -3
$$

ABBREVIATIONS USED IN REMARKS
   TC - TEMPERATURE IN CELSIUS
  WCI - WIND CHILL INDEX
   HX - HEAT INDEX
  VSB - VISIBILITY




USA.gov is the U.S. government's official web portal to all federal, state and local government web resources and services.